Location: Berbisdorf
(50.7638°N, 12.9442°E)
Time: 12:25:21
(UTC+00:00)

STARLINK-1317 - Pass Details

Date: 07 October 2020
Orbit: 549 x 550 km, 53.0° (Epoch: 27 October)

Event Time Altitude Azimuth Distance (km) Brightness Sun altitude
Exits shadow 03:52:46 19° 225° (SW) 1,343 5.1 -14.4°
Maximum altitude 03:55:35 58° 151° (SSE) 646 4.0 -13.9°
Drops below altitude 10° 03:59:39 10° 73° (ENE) 1,826 7.7 -13.3°
Sets 04:01:55 0° 70° (ENE) 2,722 8.9 -12.9°
